Regional Weather Roundup
Issued by NWS

Home | Current Version | Previous Version | Graphics & Text | Print | Product List | Glossary On
Versions: 1 2 3 4 5 6 7 8 9 10 11 12 13 14 15 16 17 18 19 20 21 22 23 24 25 26 27 28 29 30 31 32 33 34 35 36 37 38 39 40 41 42 43 44 45 46 47 48 49 50
000
ASUS43 KLOT 280906
RWRIL

ILLINOIS REGIONAL WEATHER ROUNDUP
NATIONAL WEATHER SERVICE CHICAGO/ROMEOVILLE IL
400 AM CDT THU AUG 28 2014

NOTE: "FAIR" INDICATES FEW OR NO CLOUDS BELOW 12,000 FEET WITH NO
SIGNIFICANT WEATHER AND/OR OBSTRUCTIONS TO VISIBILITY.

* THESE STATIONS ARE NOT UNDER NWS QUALITY CONTROL. THEY ALSO MAY NOT
  REPORT WEATHER SUCH AS PRECIPITATION OR FOG.

ILZ001-002-007-009-015-016-024-281000-
NORTHWEST ILLINOIS

CITY           SKY/WX    TMP DP  RH WIND       PRES   REMARKS
MOLINE         CLOUDY    66  63  90 E6        30.08S
STERLING*      CLEAR     63  59  88 E7        30.10F
SAVANNA*       PTCLDY    65  61  88 E3        30.11S
$$

ILZ003-004-008-010-011-017-018-281000-
NORTH CENTRAL ILLINOIS

CITY           SKY/WX    TMP DP  RH WIND       PRES   REMARKS
ROCKFORD       PTCLDY    65  61  87 SE3       30.14F
FREEPORT*      CLEAR     60  59  96 E5        30.15S FOG
ROCHELLE*      PTCLDY    62  60  94 E5        30.13S
DE KALB*       PTCLDY    60  59  97 CALM      30.14S
PERU*          PTCLDY    64  62  91 E6        30.12S
$$

ILZ005-006-012>014-019>023-281000-
NORTHEAST ILLINOIS

CITY           SKY/WX    TMP DP  RH WIND       PRES   REMARKS
CHICAGO-OHARE  MOCLDY    68  56  65 E7        30.12F
CHICAGO-MIDWAY PTCLDY    70  59  68 E9        30.12F
AURORA         CLEAR     62  59  90 CALM      30.13S
LANSING*       CLEAR     63  59  87 E3        30.13S
JOLIET*        CLEAR     64  60  86 CALM      30.13S
WAUKEGAN       PTCLDY    59  56  89 NE6       30.13F
DUPAGE AIRPORT CLOUDY    65  61  87 NE3       30.12F
KANKAKEE*      CLOUDY    63  59  87 E7        30.12F
WHEELING       CLOUDY    67  59  75 CALM      30.14F
MORRIS*        CLEAR     63  63 100 CALM      30.11F
ROMEOVILLE*    CLEAR     64  61  90 E5        30.12S
NORTHERLY ISL    N/A     69  60  73 E12         N/A
$$

LMZ740>746-281000-
SOUTHERN LAKE MICHIGAN

STATION/POSITION SKY/WX   TEMP    WIND        PRES    VSBY  WAVE
                          AIR SEA DIR/SP/G                  HT/PER
                          (F)     (DEG/KT/KT) (MB)    (MI)  (FT/S)
SOUTHERN BUOY              66 69   90/ 12/ 14 1021.1R         1/ 3
WAUKEGAN HARBOR            69      70/ 11/ 13   N/A
HARRISON CRIB              69      60/ 15/ 16   N/A
BURNHAM HARBOR             69      70/ 11/ 14   N/A
CALUMET HARBOR             69      50/ 10/ 13 1019.0F
MICHIGAN CITY              64      40/ 10/ 11   N/A
MICHIGAN CITY 6N           67 73   70/ 10/ 14   N/A           3/ 4
ST. JOSEPH                 64 72   80/ 14/ 17   N/A           2/ 4
$$

ILZ025>027-034>036-040-047-049-050-058-095>099-281000-
WEST-CENTRAL ILLINOIS

CITY           SKY/WX    TMP DP  RH WIND       PRES   REMARKS
QUINCY         CLEAR     71  68  90 E3        30.05S
GALESBURG*     MOCLDY    67  63  86 E7        30.08S
MACOMB*        CLOUDY    69  68  98 E5        30.08S
JACKSONVILLE*  PTCLDY    72  71  97 E5        30.06S FOG
PITTSFIELD*    PTCLDY    70  67  92 CALM      30.06S
$$

ILZ028>032-037-038-041>044-048-051>054-059>061-281000-
CENTRAL ILLINOIS

CITY           SKY/WX    TMP DP  RH WIND       PRES   REMARKS
PONTIAC        PTCLDY    66  63  88 E5        30.11S
DECATUR        CLOUDY    68  64  87 NE7       30.09R
PEORIA         CLOUDY    70  59  68 E9G20     30.09S
LACON*         PTCLDY    64  60  86 E3        30.09F
LINCOLN*       CLOUDY    69  62  80 NE7       30.07R
SPRINGFIELD    PTCLDY    71  68  90 NE8       30.06S
TAYLORVILLE    CLEAR     70  68  94 E7        30.06R
$$

ILZ033-039-045-046-055>057-062-063-281000-
EAST-CENTRAL ILLINOIS

CITY           SKY/WX    TMP DP  RH WIND       PRES   REMARKS
CHAMPAIGN      LGT RAIN  67  62  84 NE10      30.09S
DANVILLE*      CLOUDY    63  61  94 NE6       30.07F
RANTOUL*       LGT RAIN  66  62  85 NE3       30.11S
MATTOON        PTCLDY    68  66  93 NE5       30.07S
PARIS*         PTCLDY    66  65  96 CALM      30.09S
$$

ILZ079-100>102-281000-
SOUTHWEST ILLINOIS

CITY           SKY/WX    TMP DP  RH WIND       PRES   REMARKS
BELLEVILLE     FOG       70  70 100 SE2       30.03S VSB 1/2
SPARTA*        MOCLDY    71  70  96 CALM      30.05S
$$

ILZ064>066-069>071-074>076-080>082-084>086-088>090-092>094-281000-
SOUTH-CENTRAL ILLINOIS

CITY           SKY/WX    TMP DP  RH WIND       PRES   REMARKS
CARBONDALE     CLOUDY    73  71  93 CALM      30.03F
CAIRO*         PTCLDY    75  71  88 CALM      30.02S
EFFINGHAM*     RAIN      72  67  87 E5        30.05F
MARION         CLOUDY    73  72  94 CALM      30.04S
MT. VERNON     CLOUDY    72  66  83 CALM      30.05S
CENTRALIA*     CLOUDY    72  70  94 SE3       30.04F FOG
SALEM*         MOCLDY    74  73  96 NE3       30.05S FOG
METROPOLIS*    PTCLDY    73  73  98 CALM      30.02S
$$

ILZ067-068-072-073-078-083-087-091-281000-
SOUTHEAST ILLINOIS

CITY           SKY/WX    TMP DP  RH WIND       PRES   REMARKS
LAWRENCEVILLE  PTCLDY    72  71  97 N5        30.05S
FLORA*         PTCLDY    72  71  95 NE5       30.05S
FAIRFIELD*     CLOUDY    73  73 100 NE5       30.03F
HARRISBURG*    MOCLDY    72  72 100 CALM      30.05R
ROBINSON*      CLEAR     72  71  97 N6        30.07S
CARMI*           N/A     73  72  96 CALM      30.03S
$$

ABBREVIATIONS USED IN REMARKS
   TC - TEMPERATURE IN CELSIUS
  WCI - WIND CHILL INDEX
   HX - HEAT INDEX
  VSB - VISIBILITY
$$



USA.gov is the U.S. government's official web portal to all federal, state and local government web resources and services.